Data No,UTC Date,UTC Time,Latitude,Longitude,Course(deg),Temp(degC),Sal(psu),Fruor Int,Blank
4723,2006/8/8,16:38:07, 24-58.497N,119-59.877E,219.9,27.1854,33.639,190,171
4724,2006/8/8,16:39:07, 24-58.338N,119-59.724E,220.9,27.1483,33.6369,191,171
4725,2006/8/8,16:40:06, 24-58.180N,119-59.573E,219.3,27.147,33.636,197,171
4726,2006/8/8,16:41:06, 24-58.023N,119-59.423E,220.1,27.1602,33.6389,192,171
4727,2006/8/8,16:42:07, 24-57.864N,119-59.273E,220.4,27.142,33.6437,191,171
4728,2006/8/8,16:43:07, 24-57.707N,119-59.123E,218.9,27.1559,33.6539,191,171
4729,2006/8/8,16:44:06, 24-57.550N,119-58.970E,220.4,27.1628,33.6672,188,171
4730,2006/8/8,16:45:06, 24-57.394N,119-58.819E,220.8,27.1837,33.6727,186,171
4731,2006/8/8,16:46:06, 24-57.234N,119-58.669E,220.8,27.2041,33.6692,183,171
4732,2006/8/8,16:47:07, 24-57.077N,119-58.515E,220.5,27.2157,33.6506,199,171
4733,2006/8/8,16:48:07, 24-56.921N,119-58.362E,221.4,27.2734,33.6427,201,171
4734,2006/8/8,16:49:06, 24-56.764N,119-58.208E,219,27.3107,33.6401,195,171
4735,2006/8/8,16:50:06, 24-56.607N,119-58.054E,220.5,27.3765,33.6294,189,171
4736,2006/8/8,16:51:07, 24-56.451N,119-57.898E,223.9,27.4495,33.6199,185,171
4737,2006/8/8,16:52:06, 24-56.296N,119-57.742E,222.2,27.5569,33.6177,192,171
4738,2006/8/8,16:53:06, 24-56.139N,119-57.586E,221.1,27.6091,33.6161,185,171
4739,2006/8/8,16:54:06, 24-55.982N,119-57.432E,221.9,27.6486,33.6137,186,171
4740,2006/8/8,16:55:07, 24-55.829N,119-57.272E,222.7,27.7083,33.6012,189,171
4741,2006/8/8,16:56:07, 24-55.671N,119-57.115E,223,27.7733,33.5997,186,171
4742,2006/8/8,16:57:06, 24-55.516N,119-56.957E,221.2,27.8078,33.6029,186,171
4743,2006/8/8,16:58:06, 24-55.363N,119-56.801E,215.8,27.8416,33.5984,190,171
4744,2006/8/8,16:59:07, 24-55.212N,119-56.649E,220.4,27.8795,33.5899,189,171
4745,2006/8/8,17:00:07, 24-55.060N,119-56.491E,221.7,27.9663,33.5889,188,171
4746,2006/8/8,17:01:06, 24-54.906N,119-56.332E,225.1,27.9997,33.5885,190,171
4747,2006/8/8,17:02:06, 24-54.753N,119-56.175E,222.1,28.0136,33.5884,192,171
4748,2006/8/8,17:03:06, 24-54.601N,119-56.022E,218.9,28.013,33.5751,189,171
4749,2006/8/8,17:04:06, 24-54.449N,119-55.868E,229.9,28.015,33.5648,184,171
4750,2006/8/8,17:05:06, 24-54.295N,119-55.713E,224.2,28.015,33.5626,184,171
4751,2006/8/8,17:06:07, 24-54.142N,119-55.555E,220.3,27.9908,33.5608,183,171
4752,2006/8/8,17:07:07, 24-53.988N,119-55.395E,222.3,28.0003,33.5618,195,171
4753,2006/8/8,17:08:06, 24-53.833N,119-55.237E,221.4,27.9476,33.5554,191,171
4754,2006/8/8,17:09:06, 24-53.677N,119-55.078E,220.5,27.9147,33.5532,184,171
4755,2006/8/8,17:10:07, 24-53.524N,119-54.917E,222.6,27.9542,33.5656,184,171
4756,2006/8/8,17:11:06, 24-53.368N,119-54.757E,224,27.9243,33.5663,188,171
4757,2006/8/8,17:12:06, 24-53.212N,119-54.598E,219.3,27.9217,33.5598,189,171
4758,2006/8/8,17:13:06, 24-53.056N,119-54.440E,220.7,27.9176,33.5499,190,171
4759,2006/8/8,17:14:07, 24-52.900N,119-54.282E,222.4,27.9059,33.544,198,171
4760,2006/8/8,17:15:07, 24-52.746N,119-54.123E,222.3,27.9001,33.544,185,171
4761,2006/8/8,17:16:06, 24-52.589N,119-53.967E,223.9,27.8943,33.5447,183,171
4762,2006/8/8,17:17:06, 24-52.434N,119-53.806E,222.8,27.8978,33.5456,184,171
4763,2006/8/8,17:18:07, 24-52.279N,119-53.649E,223.1,27.8816,33.539,188,171
4764,2006/8/8,17:19:06, 24-52.124N,119-53.491E,224.6,27.8813,33.5344,183,171
4765,2006/8/8,17:20:07, 24-51.970N,119-53.334E,224.9,27.8728,33.5368,184,171
4766,2006/8/8,17:21:06, 24-51.817N,119-53.176E,217,27.8758,33.5377,190,171
4767,2006/8/8,17:22:06, 24-51.682N,119-53.005E,241.8,27.8708,33.5314,187,171
4768,2006/8/8,17:23:07, 24-51.566N,119-52.817E,238.7,27.8593,33.5321,184,171
4769,2006/8/8,17:24:07, 24-51.481N,119-52.613E,245.5,27.8642,33.5364,181,171
4770,2006/8/8,17:25:06, 24-51.394N,119-52.408E,247.3,27.8704,33.5401,183,171
4771,2006/8/8,17:26:07, 24-51.304N,119-52.204E,243.3,27.8673,33.5365,182,171
4772,2006/8/8,17:27:06, 24-51.191N,119-52.014E,237.1,27.8662,33.5334,187,171
4773,2006/8/8,17:28:07, 24-51.082N,119-51.821E,233.6,27.8447,33.5359,193,171
4774,2006/8/8,17:29:07, 24-50.970N,119-51.628E,241,27.8479,33.5394,174,171
4775,2006/8/8,17:30:07, 24-50.860N,119-51.432E,236.9,27.8241,33.5418,187,171
4776,2006/8/8,17:31:06, 24-50.749N,119-51.238E,241.5,27.8314,33.5414,187,171
4777,2006/8/8,17:32:06, 24-50.636N,119-51.042E,237.8,27.8075,33.5358,191,171
4778,2006/8/8,17:33:07, 24-50.525N,119-50.847E,239.9,27.804,33.5371,189,171
4779,2006/8/8,17:34:07, 24-50.403N,119-50.662E,225.4,27.7845,33.5399,189,171
4780,2006/8/8,17:35:07, 24-50.258N,119-50.492E,222.2,27.768,33.5338,185,171
4781,2006/8/8,17:36:06, 24-50.106N,119-50.339E,224.3,27.7487,33.5329,193,171
4782,2006/8/8,17:37:07, 24-49.953N,119-50.186E,220.5,27.7277,33.5355,190,171
4783,2006/8/8,17:38:07, 24-49.797N,119-50.037E,224.5,27.697,33.5394,192,171
4784,2006/8/8,17:39:07, 24-49.637N,119-49.892E,219.8,27.6891,33.5347,177,171
4785,2006/8/8,17:40:07, 24-49.466N,119-49.760E,214.9,27.6552,33.5324,183,171
4786,2006/8/8,17:41:07, 24-49.294N,119-49.623E,213.6,27.6333,33.5365,187,171
4787,2006/8/8,17:42:07, 24-49.120N,119-49.496E,214.2,27.6025,33.5417,187,171
4788,2006/8/8,17:43:07, 24-48.951N,119-49.369E,211,27.5666,33.5433,193,171
4789,2006/8/8,17:44:07, 24-48.778N,119-49.242E,213.9,27.5294,33.5397,186,171
4790,2006/8/8,17:45:07, 24-48.601N,119-49.110E,211.7,27.4815,33.5451,188,171
4791,2006/8/8,17:46:06, 24-48.433N,119-48.982E,216.1,27.4436,33.552,197,171
4792,2006/8/8,17:47:07, 24-48.252N,119-48.870E,209.7,27.4322,33.5518,194,171
4793,2006/8/8,17:48:07, 24-48.078N,119-48.753E,203,27.3955,33.557,187,171
4794,2006/8/8,17:49:07, 24-47.899N,119-48.639E,214.8,27.3969,33.5635,191,171
4795,2006/8/8,17:50:07, 24-47.722N,119-48.525E,210,27.4104,33.5665,189,171
4796,2006/8/8,17:51:06, 24-47.547N,119-48.410E,208.1,27.402,33.563,183,171
4797,2006/8/8,17:52:07, 24-47.366N,119-48.292E,210.3,27.388,33.5651,189,171
4798,2006/8/8,17:53:07, 24-47.185N,119-48.174E,222.9,27.3569,33.5663,189,171
4799,2006/8/8,17:54:07, 24-47.048N,119-48.003E,230.4,27.362,33.5648,188,171
4800,2006/8/8,17:55:07, 24-46.907N,119-47.835E,227.2,27.3574,33.5576,192,171
4801,2006/8/8,17:56:07, 24-46.770N,119-47.667E,225.5,27.3512,33.5585,185,171
4802,2006/8/8,17:57:07, 24-46.630N,119-47.493E,230.7,27.3394,33.5655,189,171
4803,2006/8/8,17:58:07, 24-46.489N,119-47.322E,227.9,27.3178,33.5671,192,171
4804,2006/8/8,17:59:06, 24-46.352N,119-47.153E,228.2,27.3303,33.5637,193,171
4805,2006/8/8,18:00:07, 24-46.211N,119-46.982E,230.7,27.3385,33.5695,193,171
4806,2006/8/8,18:01:07, 24-46.069N,119-46.810E,229.4,27.2961,33.5808,196,171
4807,2006/8/8,18:02:07, 24-45.932N,119-46.639E,229,27.303,33.5869,198,171
4808,2006/8/8,18:03:07, 24-45.794N,119-46.470E,229.1,27.3084,33.5884,199,171
4809,2006/8/8,18:04:07, 24-45.656N,119-46.305E,229.9,27.3251,33.5932,197,171
4810,2006/8/8,18:05:07, 24-45.516N,119-46.135E,227.7,27.3328,33.5937,197,171
4811,2006/8/8,18:06:07, 24-45.374N,119-45.960E,226.8,27.3261,33.5919,197,171
4812,2006/8/8,18:07:07, 24-45.235N,119-45.786E,231.1,27.3343,33.5888,195,171
4813,2006/8/8,18:08:07, 24-45.097N,119-45.617E,227.1,27.3401,33.5844,199,171
4814,2006/8/8,18:09:07, 24-44.962N,119-45.449E,232,27.3166,33.5771,190,171
4815,2006/8/8,18:10:07, 24-44.825N,119-45.279E,228.2,27.3193,33.575,198,171
4816,2006/8/8,18:11:07, 24-44.683N,119-45.107E,228.5,27.3275,33.5765,196,171
4817,2006/8/8,18:12:06, 24-44.545N,119-44.939E,228,27.3422,33.5742,201,171
4818,2006/8/8,18:13:07, 24-44.406N,119-44.768E,227.4,27.3381,33.5652,200,171
4819,2006/8/8,18:14:07, 24-44.265N,119-44.595E,226.2,27.3407,33.5639,198,171
4820,2006/8/8,18:15:07, 24-44.130N,119-44.417E,231.4,27.3605,33.5663,200,171
4821,2006/8/8,18:16:07, 24-43.998N,119-44.244E,229.2,27.3752,33.5645,197,171
4822,2006/8/8,18:17:07, 24-43.863N,119-44.064E,231.7,27.3839,33.5574,203,171
4823,2006/8/8,18:18:07, 24-43.730N,119-43.886E,228.1,27.3843,33.5561,204,171
4824,2006/8/8,18:19:07, 24-43.598N,119-43.712E,228.8,27.3559,33.5576,199,171
4825,2006/8/8,18:20:07, 24-43.464N,119-43.537E,231.1,27.3466,33.5592,201,171
4826,2006/8/8,18:21:07, 24-43.331N,119-43.361E,228.9,27.3425,33.5542,197,171
4827,2006/8/8,18:22:07, 24-43.199N,119-43.186E,229.6,27.3249,33.5586,200,171
4828,2006/8/8,18:23:07, 24-43.070N,119-43.015E,230.6,27.3086,33.5715,200,171
4829,2006/8/8,18:24:07, 24-42.937N,119-42.842E,233.7,27.2638,33.5805,204,171
4830,2006/8/8,18:25:07, 24-42.807N,119-42.671E,228.4,27.2426,33.5852,203,171
4831,2006/8/8,18:26:07, 24-42.678N,119-42.501E,232.6,27.2067,33.5817,205,171
4832,2006/8/8,18:27:07, 24-42.547N,119-42.329E,229.6,27.1827,33.5797,207,171
4833,2006/8/8,18:28:07, 24-42.415N,119-42.155E,227.3,27.1607,33.5827,212,171
4834,2006/8/8,18:29:07, 24-42.283N,119-41.982E,227.6,27.1264,33.5851,216,171
4835,2006/8/8,18:30:07, 24-42.151N,119-41.810E,232.4,27.1127,33.5871,212,171
4836,2006/8/8,18:31:07, 24-42.021N,119-41.641E,230.6,27.1108,33.588,217,171
4837,2006/8/8,18:32:07, 24-41.893N,119-41.473E,228.7,27.0935,33.5932,212,171
4838,2006/8/8,18:33:07, 24-41.760N,119-41.299E,229.3,27.0887,33.5921,225,171
4839,2006/8/8,18:34:07, 24-41.630N,119-41.129E,228.9,27.0739,33.5884,222,171
4840,2006/8/8,18:35:07, 24-41.495N,119-40.953E,234.2,27.0439,33.5856,220,171
4841,2006/8/8,18:36:07, 24-41.362N,119-40.780E,233,27.0244,33.5771,209,171
4842,2006/8/8,18:37:07, 24-41.230N,119-40.607E,235.1,27.0277,33.5753,214,171
4843,2006/8/8,18:38:07, 24-41.103N,119-40.441E,229.3,27.0177,33.5774,220,171
4844,2006/8/8,18:39:07, 24-40.972N,119-40.266E,225.6,27.007,33.5803,215,171
4845,2006/8/8,18:40:07, 24-40.841N,119-40.094E,231.2,26.9945,33.5746,214,171
4846,2006/8/8,18:41:07, 24-40.708N,119-39.921E,231.6,26.9857,33.5717,211,171
4847,2006/8/8,18:42:07, 24-40.578N,119-39.749E,228,26.9738,33.5734,210,171
4848,2006/8/8,18:43:07, 24-40.445N,119-39.576E,232.5,26.9575,33.5762,218,171
4849,2006/8/8,18:44:07, 24-40.315N,119-39.403E,233.8,26.9593,33.5768,219,171
4850,2006/8/8,18:45:07, 24-40.187N,119-39.227E,231.4,26.9546,33.5699,219,171
4851,2006/8/8,18:46:07, 24-40.060N,119-39.060E,229.4,26.9441,33.571,224,171
4852,2006/8/8,18:47:07, 24-39.933N,119-38.891E,231.7,26.9399,33.5751,219,171
4853,2006/8/8,18:48:07, 24-39.805N,119-38.720E,229.2,26.9334,33.5802,220,171
4854,2006/8/8,18:49:07, 24-39.676N,119-38.552E,227.6,26.932,33.5781,222,171
4855,2006/8/8,18:50:07, 24-39.546N,119-38.382E,230.7,26.9284,33.5757,223,171
4856,2006/8/8,18:51:07, 24-39.418N,119-38.212E,231.2,26.922,33.579,225,171
4857,2006/8/8,18:52:07, 24-39.285N,119-38.031E,228.9,26.9157,33.5841,220,171
4858,2006/8/8,18:53:07, 24-39.154N,119-37.857E,228.3,26.9232,33.5789,223,171
4859,2006/8/8,18:54:07, 24-39.025N,119-37.684E,231.6,26.934,33.5778,223,171
4860,2006/8/8,18:55:07, 24-38.898N,119-37.513E,233.3,26.9516,33.5824,214,171
4861,2006/8/8,18:56:07, 24-38.769N,119-37.341E,230.7,26.9445,33.588,216,171
4862,2006/8/8,18:57:07, 24-38.642N,119-37.164E,231.6,26.96,33.5887,216,171
4863,2006/8/8,18:58:07, 24-38.517N,119-36.991E,231.2,26.9748,33.5851,213,171
4864,2006/8/8,18:59:07, 24-38.400N,119-36.817E,229.7,26.9716,33.5853,212,171
4865,2006/8/8,19:00:07, 24-38.277N,119-36.649E,228.7,26.9336,33.5875,219,171
4866,2006/8/8,19:01:07, 24-38.155N,119-36.479E,228.6,26.9648,33.5881,219,171
4867,2006/8/8,19:02:07, 24-38.033N,119-36.307E,235.3,26.978,33.5782,226,171
4868,2006/8/8,19:03:07, 24-37.912N,119-36.136E,232.3,26.9995,33.5732,222,171
4869,2006/8/8,19:04:07, 24-37.787N,119-35.964E,234.1,27.024,33.5735,225,171
4870,2006/8/8,19:05:07, 24-37.667N,119-35.793E,231.1,27.0437,33.5751,221,171
4871,2006/8/8,19:06:07, 24-37.546N,119-35.621E,232.5,27.0762,33.5696,220,171
4872,2006/8/8,19:07:07, 24-37.425N,119-35.450E,229.2,27.1442,33.5702,226,171
4873,2006/8/8,19:08:07, 24-37.302N,119-35.279E,236.3,27.1955,33.5745,208,171
4874,2006/8/8,19:09:07, 24-37.179N,119-35.110E,232.3,27.2171,33.5831,210,171
4875,2006/8/8,19:10:07, 24-37.058N,119-34.939E,228.9,27.2534,33.5832,204,171
4876,2006/8/8,19:11:07, 24-36.933N,119-34.769E,237.7,27.266,33.5793,204,171
4877,2006/8/8,19:12:07, 24-36.812N,119-34.601E,230.8,27.2734,33.5844,213,171
4878,2006/8/8,19:13:07, 24-36.692N,119-34.428E,231.7,27.3298,33.5974,201,171
4879,2006/8/8,19:14:07, 24-36.582N,119-34.255E,247.7,27.3529,33.6053,197,171
4880,2006/8/8,19:15:07, 24-36.489N,119-34.074E,236.2,27.3668,33.6051,203,171
4881,2006/8/8,19:16:07, 24-36.420N,119-33.886E,241.7,27.4002,33.6026,205,171
4882,2006/8/8,19:17:07, 24-36.332N,119-33.699E,247.4,27.4297,33.6036,198,171
4883,2006/8/8,19:18:07, 24-36.254N,119-33.511E,243.6,27.4512,33.6141,194,171
4884,2006/8/8,19:19:07, 24-36.172N,119-33.322E,244.4,27.4431,33.612,195,171
4885,2006/8/8,19:20:07, 24-36.092N,119-33.135E,243.7,27.4708,33.6077,197,171
4886,2006/8/8,19:21:07, 24-36.002N,119-32.955E,231.3,27.4847,33.61,194,171
4887,2006/8/8,19:22:07, 24-35.898N,119-32.779E,239.3,27.5121,33.6183,189,171
4888,2006/8/8,19:23:07, 24-35.782N,119-32.614E,243.5,27.536,33.622,196,171
4889,2006/8/8,19:24:07, 24-35.667N,119-32.445E,231.9,27.5409,33.616,186,171
4890,2006/8/8,19:25:07, 24-35.550N,119-32.277E,235.4,27.5623,33.614,193,171
4891,2006/8/8,19:26:07, 24-35.433N,119-32.109E,233,27.5758,33.6145,195,171
4892,2006/8/8,19:27:07, 24-35.316N,119-31.938E,233.3,27.5702,33.6181,190,171
4893,2006/8/8,19:28:07, 24-35.198N,119-31.762E,236,27.5726,33.6152,192,171
4894,2006/8/8,19:29:07, 24-35.074N,119-31.588E,230.2,27.579,33.6146,191,171
4895,2006/8/8,19:30:07, 24-34.961N,119-31.411E,235.8,27.5969,33.6195,192,171
4896,2006/8/8,19:31:07, 24-34.850N,119-31.241E,231.3,27.5989,33.6245,185,171
4897,2006/8/8,19:32:07, 24-34.737N,119-31.080E,232.7,27.6056,33.626,190,171
4898,2006/8/8,19:33:07, 24-34.623N,119-30.913E,229.5,27.6092,33.6184,200,171
4899,2006/8/8,19:34:07, 24-34.512N,119-30.749E,233.1,27.6165,33.6166,192,171
4900,2006/8/8,19:35:07, 24-34.398N,119-30.582E,233.2,27.6116,33.6171,194,171
4901,2006/8/8,19:36:07, 24-34.279N,119-30.414E,229.6,27.6092,33.6154,191,171
4902,2006/8/8,19:37:07, 24-34.162N,119-30.241E,237,27.6213,33.6082,180,171
4903,2006/8/8,19:38:07, 24-34.044N,119-30.067E,231.7,27.613,33.6093,197,171
4904,2006/8/8,19:39:07, 24-33.926N,119-29.892E,233.8,27.6125,33.6146,192,171
4905,2006/8/8,19:40:07, 24-33.805N,119-29.717E,235.4,27.6164,33.6155,195,171
4906,2006/8/8,19:41:07, 24-33.688N,119-29.540E,239,27.6217,33.6106,219,171
4907,2006/8/8,19:42:07, 24-33.567N,119-29.366E,234.9,27.6288,33.6106,184,171
4918,2006/8/8,19:53:07, 24-32.323N,119-27.454E,236.3,27.5193,33.6074,190,171
4921,2006/8/8,19:56:07, 24-31.930N,119-26.926E,234,27.509,33.5704,207,171
4923,2006/8/8,19:58:07, 24-31.693N,119-26.577E,236.1,27.5079,33.575,195,171
4924,2006/8/8,19:59:07, 24-31.575N,119-26.393E,231.4,27.5259,33.558,204,171
4926,2006/8/8,20:01:07, 24-31.336N,119-26.031E,231.3,27.5402,33.5457,205,171
4927,2006/8/8,20:02:07, 24-31.215N,119-25.849E,228.3,27.5381,33.5426,204,171
4928,2006/8/8,20:03:07, 24-31.094N,119-25.668E,234.6,27.5316,33.5405,197,171
4929,2006/8/8,20:04:07, 24-30.977N,119-25.487E,236.9,27.5303,33.5413,203,171
4930,2006/8/8,20:05:07, 24-30.859N,119-25.306E,231.5,27.5441,33.5352,199,171
4931,2006/8/8,20:06:07, 24-30.741N,119-25.123E,233.1,27.5535,33.536,208,171
4932,2006/8/8,20:07:07, 24-30.621N,119-24.942E,234.2,27.5731,33.5403,193,171
4933,2006/8/8,20:08:07, 24-30.501N,119-24.760E,235,27.5527,33.5464,198,171
4934,2006/8/8,20:09:07, 24-30.381N,119-24.575E,238.7,27.5742,33.5453,207,171
4935,2006/8/8,20:10:07, 24-30.261N,119-24.395E,234.2,27.5556,33.5452,202,171
4936,2006/8/8,20:11:07, 24-30.143N,119-24.214E,231.8,27.5669,33.5533,201,171
4937,2006/8/8,20:12:07, 24-30.022N,119-24.032E,234.5,27.5621,33.5615,195,171
4938,2006/8/8,20:13:07, 24-29.901N,119-23.848E,236.9,27.5459,33.5624,192,171
4939,2006/8/8,20:14:07, 24-29.781N,119-23.666E,232.7,27.5361,33.5668,195,171
4940,2006/8/8,20:15:07, 24-29.663N,119-23.488E,236.9,27.5121,33.5728,197,171
4941,2006/8/8,20:16:07, 24-29.544N,119-23.312E,232.6,27.4994,33.5778,199,171
4942,2006/8/8,20:17:07, 24-29.429N,119-23.132E,232.6,27.4609,33.5741,206,171
4943,2006/8/8,20:18:07, 24-29.309N,119-22.956E,237,27.447,33.5755,196,171
4944,2006/8/8,20:19:07, 24-29.193N,119-22.775E,232.4,27.4174,33.58,207,171
4945,2006/8/8,20:20:07, 24-29.075N,119-22.594E,232.7,27.4054,33.5866,203,171
4946,2006/8/8,20:21:07, 24-28.958N,119-22.416E,232.1,27.3818,33.5848,203,171
4947,2006/8/8,20:22:07, 24-28.838N,119-22.238E,234.6,27.3831,33.5875,206,171
4948,2006/8/8,20:23:07, 24-28.720N,119-22.059E,234.5,27.4013,33.5861,203,171
4949,2006/8/8,20:24:07, 24-28.604N,119-21.882E,232,27.4302,33.5949,199,171
4950,2006/8/8,20:25:07, 24-28.488N,119-21.705E,235.3,27.461,33.5939,205,171
4951,2006/8/8,20:26:07, 24-28.369N,119-21.529E,239.6,27.4895,33.5952,205,171
4952,2006/8/8,20:27:07, 24-28.251N,119-21.352E,239.1,27.5148,33.5881,209,171
4953,2006/8/8,20:28:07, 24-28.135N,119-21.180E,230,27.5622,33.5803,209,171
4954,2006/8/8,20:29:07, 24-28.021N,119-21.009E,236.9,27.6029,33.582,205,171
4955,2006/8/8,20:30:07, 24-27.906N,119-20.839E,235.4,27.6418,33.5793,195,171
4956,2006/8/8,20:31:07, 24-27.794N,119-20.663E,232.2,27.6382,33.5779,201,171
4957,2006/8/8,20:32:07, 24-27.681N,119-20.490E,232.7,27.6605,33.5695,199,171
4958,2006/8/8,20:33:07, 24-27.566N,119-20.320E,233.2,27.6646,33.5697,192,171
4959,2006/8/8,20:34:07, 24-27.452N,119-20.151E,232.9,27.6713,33.5754,194,171
4960,2006/8/8,20:35:07, 24-27.337N,119-19.980E,226.3,27.6569,33.5777,204,171
4961,2006/8/8,20:36:07, 24-27.223N,119-19.807E,231.6,27.6478,33.5796,196,171
4962,2006/8/8,20:37:07, 24-27.107N,119-19.634E,232.9,27.6245,33.5831,190,171
4963,2006/8/8,20:38:07, 24-26.990N,119-19.459E,232.4,27.6209,33.5808,197,171
4964,2006/8/8,20:39:07, 24-26.874N,119-19.280E,231.4,27.6204,33.5819,201,171
4965,2006/8/8,20:40:07, 24-26.759N,119-19.102E,229.3,27.6406,33.585,208,171
4966,2006/8/8,20:41:07, 24-26.643N,119-18.925E,236.7,27.6569,33.5847,204,171
4967,2006/8/8,20:42:07, 24-26.528N,119-18.748E,231.6,27.6822,33.5795,192,171
4968,2006/8/8,20:43:07, 24-26.412N,119-18.570E,229.8,27.6978,33.5776,198,171
4969,2006/8/8,20:44:07, 24-26.295N,119-18.394E,234.6,27.7161,33.576,200,171
4970,2006/8/8,20:45:07, 24-26.180N,119-18.216E,237.7,27.7315,33.5721,198,171
4971,2006/8/8,20:46:07, 24-26.063N,119-18.035E,233.8,27.7373,33.5724,198,171
4972,2006/8/8,20:47:07, 24-25.945N,119-17.856E,236.7,27.7463,33.5662,204,171
4973,2006/8/8,20:48:07, 24-25.830N,119-17.678E,234.8,27.7535,33.5625,189,171
4974,2006/8/8,20:49:07, 24-25.714N,119-17.501E,231.8,27.7577,33.565,189,171
4975,2006/8/8,20:50:07, 24-25.596N,119-17.325E,231,27.7747,33.5626,203,171
4976,2006/8/8,20:51:07, 24-25.480N,119-17.153E,236.7,27.8152,33.5609,200,171
4977,2006/8/8,20:52:07, 24-25.362N,119-16.982E,233,27.8408,33.5649,187,171
4978,2006/8/8,20:53:07, 24-25.245N,119-16.809E,233.5,27.8534,33.5676,195,171
4979,2006/8/8,20:54:07, 24-25.126N,119-16.638E,231.2,27.8699,33.561,197,171
4980,2006/8/8,20:55:07, 24-25.008N,119-16.464E,240.1,27.9046,33.5599,195,171
4981,2006/8/8,20:56:07, 24-24.889N,119-16.291E,233.2,27.9188,33.5637,188,171
4982,2006/8/8,20:57:07, 24-24.770N,119-16.121E,231.9,27.9142,33.5656,187,171
4983,2006/8/8,20:58:07, 24-24.654N,119-15.949E,229.3,27.9015,33.5614,191,171
4984,2006/8/8,20:59:07, 24-24.539N,119-15.780E,231.3,27.8774,33.5636,183,171
4985,2006/8/8,21:00:07, 24-24.425N,119-15.609E,237.1,27.8763,33.5683,193,171
4986,2006/8/8,21:01:07, 24-24.309N,119-15.439E,234.9,27.8764,33.5665,188,171
4987,2006/8/8,21:02:07, 24-24.193N,119-15.268E,233.8,27.8859,33.5669,196,171
4988,2006/8/8,21:03:07, 24-24.077N,119-15.095E,237.1,27.8864,33.573,188,171
4989,2006/8/8,21:04:07, 24-23.963N,119-14.923E,232.9,27.9132,33.5744,192,171
4990,2006/8/8,21:05:07, 24-23.848N,119-14.753E,235.8,27.9283,33.5732,188,171
4991,2006/8/8,21:06:07, 24-23.734N,119-14.582E,235.2,27.9423,33.5892,191,171
4992,2006/8/8,21:07:07, 24-23.620N,119-14.409E,232.9,27.9644,33.5981,193,171
4993,2006/8/8,21:08:07, 24-23.505N,119-14.238E,233.7,27.9704,33.596,192,171
4994,2006/8/8,21:09:07, 24-23.394N,119-14.069E,235.9,27.9736,33.5927,186,171
4995,2006/8/8,21:10:07, 24-23.285N,119-13.904E,235.4,27.9951,33.5904,188,171
4996,2006/8/8,21:11:07, 24-23.176N,119-13.739E,232.1,28.0121,33.5871,198,171
4997,2006/8/8,21:12:07, 24-23.065N,119-13.573E,234.6,28.0264,33.588,189,171
4998,2006/8/8,21:13:07, 24-22.950N,119-13.403E,235.6,28.0452,33.5894,189,171
4999,2006/8/8,21:14:07, 24-22.836N,119-13.229E,233.5,28.0553,33.5823,183,171
5000,2006/8/8,21:15:07, 24-22.720N,119-13.056E,232.2,28.0586,33.5801,189,171
5001,2006/8/8,21:16:07, 24-22.610N,119-12.881E,234.9,28.0631,33.5842,190,171
5002,2006/8/8,21:17:07, 24-22.495N,119-12.708E,238.6,28.0631,33.5819,194,171
5003,2006/8/8,21:18:07, 24-22.380N,119-12.532E,235.9,28.0794,33.5742,192,171
5004,2006/8/8,21:19:07, 24-22.265N,119-12.356E,235,28.0781,33.5724,181,171
5005,2006/8/8,21:20:07, 24-22.152N,119-12.182E,236.7,28.0746,33.5696,190,171
5006,2006/8/8,21:21:07, 24-22.039N,119-12.007E,234.9,28.059,33.5798,202,171
5007,2006/8/8,21:22:07, 24-21.926N,119-11.839E,229.1,28.0591,33.5894,185,171
5008,2006/8/8,21:23:07, 24-21.822N,119-11.674E,232.4,28.066,33.589,196,171
5009,2006/8/8,21:24:07, 24-21.712N,119-11.511E,240.1,28.0683,33.5792,199,171
5010,2006/8/8,21:25:07, 24-21.602N,119-11.343E,229.6,28.0627,33.5706,194,171
5011,2006/8/8,21:26:07, 24-21.491N,119-11.173E,229.9,28.0489,33.5691,198,171
5012,2006/8/8,21:27:07, 24-21.378N,119-11.002E,237.3,28.0403,33.5641,188,171
5013,2006/8/8,21:28:07, 24-21.264N,119-10.830E,235.6,28.0363,33.5693,194,171
5014,2006/8/8,21:29:07, 24-21.152N,119-10.661E,238.8,28.0244,33.5657,192,171
5015,2006/8/8,21:30:07, 24-21.044N,119-10.489E,234.3,28.0155,33.5649,193,171
5016,2006/8/8,21:31:07, 24-20.928N,119-10.322E,240.3,28.0103,33.5547,197,171
5017,2006/8/8,21:32:07, 24-20.816N,119-10.155E,231.6,27.9854,33.5544,187,171
5018,2006/8/8,21:33:07, 24-20.705N,119-09.989E,231,27.9662,33.5573,189,171
5019,2006/8/8,21:34:07, 24-20.587N,119-09.827E,232.1,27.9463,33.5546,186,171
5020,2006/8/8,21:35:07, 24-20.474N,119-09.660E,227.5,27.9185,33.5539,187,171
5021,2006/8/8,21:36:07, 24-20.359N,119-09.494E,233.3,27.9052,33.5537,190,171
5022,2006/8/8,21:37:07, 24-20.240N,119-09.329E,232.6,27.8937,33.554,196,171
5023,2006/8/8,21:38:07, 24-20.118N,119-09.161E,233.4,27.8815,33.5569,192,171
5024,2006/8/8,21:39:07, 24-20.001N,119-08.991E,229.1,27.8636,33.5553,183,171
5025,2006/8/8,21:40:07, 24-19.882N,119-08.821E,234.5,27.8521,33.5617,181,171
5026,2006/8/8,21:41:07, 24-19.762N,119-08.653E,231.7,27.8574,33.5715,178,171
5027,2006/8/8,21:42:07, 24-19.642N,119-08.485E,231.5,27.8361,33.5702,193,171
5028,2006/8/8,21:43:07, 24-19.526N,119-08.317E,237,27.8251,33.5711,191,171
5029,2006/8/8,21:44:07, 24-19.412N,119-08.150E,233.2,27.8086,33.5782,195,171
5030,2006/8/8,21:45:07, 24-19.295N,119-07.984E,235,27.7907,33.5793,---,171
5031,2006/8/8,21:46:07, 24-19.179N,119-07.816E,233.3,27.7828,33.5783,179,171
5032,2006/8/8,21:47:07, 24-19.063N,119-07.648E,232.4,27.791,33.5878,181,171
5033,2006/8/8,21:48:07, 24-18.945N,119-07.482E,232.5,27.7681,33.5993,178,171
5034,2006/8/8,21:49:07, 24-18.830N,119-07.318E,231.9,27.7386,33.606,185,171
5035,2006/8/8,21:50:07, 24-18.714N,119-07.154E,234.8,27.7177,33.6095,182,171
5036,2006/8/8,21:51:07, 24-18.596N,119-06.987E,231.9,27.6739,33.6114,192,171
5037,2006/8/8,21:52:07, 24-18.475N,119-06.820E,229.8,27.6463,33.6141,195,171
5038,2006/8/8,21:53:07, 24-18.357N,119-06.649E,231.5,27.6337,33.6151,190,171
5039,2006/8/8,21:54:07, 24-18.240N,119-06.481E,227.3,27.5957,33.6151,193,171
5040,2006/8/8,21:55:07, 24-18.123N,119-06.313E,236,27.5947,33.6078,188,171
5041,2006/8/8,21:56:07, 24-18.006N,119-06.144E,230.8,27.5705,33.6024,187,171
5042,2006/8/8,21:57:07, 24-17.891N,119-05.976E,234.4,27.5691,33.5995,187,171
5043,2006/8/8,21:58:07, 24-17.776N,119-05.813E,235.7,27.5582,33.5974,190,171
5044,2006/8/8,21:59:07, 24-17.662N,119-05.647E,234.4,27.5586,33.5886,193,171